When you browse on this site, cookies collect data to enhance your experience and personalize the content and advertising you see.
Visit our Privacy Policy to learn more. By continuing to use the site, you agree to this use of cookies and data.
  • In Portugal
  • List of Countries
  • For 7 days
  • Water Temperature
  • Satellite Maps
  • Weather Map
  • Weather Widgets
  • user-avatar
    Login

    Hourly Weather Ali Bayramli

    Today, 16 December, Sunday

    Time Temperature Precipitation Wind Pressure Humidity
    00:00 +7°C° 0 mm 2 mps 767 mmHg 58%
    01:00 +7°C° 0 mm 2 mps 767 mmHg 57%
    02:00 +7°C° 0 mm 2 mps 766 mmHg 57%
    03:00 +5°C° 0 mm 3 mps 766 mmHg 54%
    04:00 +5°C° 0 mm 3 mps 766 mmHg 54%
    05:00 +5°C° 0 mm 3 mps 766 mmHg 54%
    06:00 +5°C° 0 mm 3 mps 766 mmHg 55%
    07:00 +7°C° 0 mm 2 mps 766 mmHg 53%
    08:00 +7°C° 0 mm 2 mps 766 mmHg 51%
    09:00 +8°C° 0 mm 2 mps 766 mmHg 48%
    10:00 +9°C° 0 mm 3 mps 767 mmHg 49%
    11:00 +10°C° 0 mm 4 mps 767 mmHg 49%
    12:00 +10°C° 0 mm 5 mps 767 mmHg 50%
    13:00 +10°C° 0 mm 6 mps 767 mmHg 53%
    14:00 +10°C° 0 mm 6 mps 767 mmHg 56%
    15:00 +10°C° 0 mm 7 mps 767 mmHg 59%
    16:00 +9°C° 0 mm 7 mps 768 mmHg 64%
    17:00 +8°C° 0 mm 7 mps 768 mmHg 69%
    18:00 +6°C° 0 mm 7 mps 768 mmHg 73%
    19:00 +6°C° 0 mm 7 mps 769 mmHg 74%
    20:00 +5°C° 0 mm 7 mps 769 mmHg 76%
    21:00 +5°C° 0 mm 6 mps 769 mmHg 77%
    22:00 +5°C° 0 mm 6 mps 769 mmHg 77%
    23:00 +5°C° 0 mm 6 mps 769 mmHg 78%

    Tomorrow, 17 December, Monday

    Time Temperature Precipitation Wind Pressure Humidity
    00:00 +4°C° 0 mm 6 mps 769 mmHg 78%
    01:00 +4°C° 0 mm 6 mps 769 mmHg 78%
    02:00 +5°C° 0 mm 5 mps 769 mmHg 78%
    03:00 +6°C° 0 mm 5 mps 769 mmHg 78%
    04:00 +5°C° 0 mm 5 mps 769 mmHg 78%
    05:00 +5°C° 0 mm 4 mps 769 mmHg 78%
    06:00 +5°C° 0 mm 4 mps 769 mmHg 78%
    07:00 +6°C° 0 mm 4 mps 768 mmHg 78%
    08:00 +6°C° 0 mm 4 mps 768 mmHg 78%
    09:00 +6°C° 0 mm 4 mps 768 mmHg 78%
    10:00 +6°C° 0 mm 4 mps 768 mmHg 77%
    11:00 +6°C° 0 mm 4 mps 768 mmHg 77%
    12:00 +6°C° 0 mm 4 mps 767 mmHg 76%
    13:00 +6°C° 0 mm 4 mps 767 mmHg 77%
    14:00 +6°C° 0 mm 4 mps 767 mmHg 77%
    15:00 +6°C° 0 mm 4 mps 767 mmHg 77%
    16:00 +6°C° 0.1 mm 5 mps 767 mmHg 78%
    17:00 +6°C° 0.1 mm 5 mps 767 mmHg 78%
    18:00 +6°C° 0.1 mm 5 mps 767 mmHg 79%
    19:00 +6°C° 0.2 mm 5 mps 767 mmHg 79%
    20:00 +6°C° 0.2 mm 5 mps 767 mmHg 79%
    21:00 +6°C° 0.2 mm 5 mps 767 mmHg 80%
    22:00 +6°C° 0.4 mm 5 mps 767 mmHg 81%
    23:00 +6°C° 0.4 mm 5 mps 766 mmHg 83%

    Day after tomorrow, 18 December, Tuesday

    Time Temperature Precipitation Wind Pressure Humidity
    00:00 +6°C° 0.4 mm 5 mps 766 mmHg 84%
    01:00 +6°C° 0.3 mm 5 mps 766 mmHg 84%
    02:00 +6°C° 0.3 mm 5 mps 766 mmHg 84%
    03:00 +5°C° 0.3 mm 6 mps 766 mmHg 84%
    04:00 +6°C° 0.4 mm 5 mps 766 mmHg 83%
    05:00 +6°C° 0.4 mm 5 mps 766 mmHg 82%
    06:00 +6°C° 0.4 mm 5 mps 765 mmHg 81%
    07:00 +6°C° 0.4 mm 5 mps 766 mmHg 80%
    08:00 +6°C° 0.4 mm 5 mps 766 mmHg 80%
    09:00 +6°C° 0.4 mm 5 mps 766 mmHg 79%
    10:00 +6°C° 0.3 mm 5 mps 766 mmHg 79%
    11:00 +6°C° 0.3 mm 4 mps 766 mmHg 78%
    12:00 +6°C° 0.3 mm 4 mps 766 mmHg 78%
    13:00 +6°C° 0.2 mm 4 mps 766 mmHg 78%
    14:00 +6°C° 0.2 mm 4 mps 766 mmHg 78%
    15:00 +6°C° 0.2 mm 4 mps 767 mmHg 78%
    16:00 +7°C° 0.1 mm 3 mps 767 mmHg 78%
    17:00 +7°C° 0.1 mm 3 mps 767 mmHg 78%
    18:00 +7°C° 0.1 mm 3 mps 768 mmHg 79%
    19:00 +7°C° 0 mm 3 mps 768 mmHg 78%
    20:00 +7°C° 0 mm 2 mps 768 mmHg 78%
    21:00 +7°C° 0 mm 2 mps 768 mmHg 78%
    22:00 +6°C° 0 mm 2 mps 768 mmHg 78%
    23:00 +6°C° 0 mm 2 mps 768 mmHg 79%

    19 December, Wednesday

    Time Temperature Precipitation Wind Pressure Humidity
    00:00 +6°C° 0 mm 2 mps 768 mmHg 80%
    01:00 +6°C° 0 mm 2 mps 768 mmHg 81%
    02:00 +6°C° 0 mm 1 mps 768 mmHg 81%
    03:00 +6°C° 0 mm 1 mps 768 mmHg 82%
    04:00 +6°C° 0 mm 1 mps 768 mmHg 82%
    05:00 +6°C° 0 mm 1 mps 768 mmHg 82%
    06:00 +6°C° 0 mm 1 mps 768 mmHg 83%
    07:00 +7°C° 0 mm 1 mps 768 mmHg 80%
    08:00 +7°C° 0 mm 1 mps 768 mmHg 78%
    09:00 +8°C° 0 mm 1 mps 768 mmHg 75%
    10:00 +8°C° 0 mm 1 mps 768 mmHg 73%
    11:00 +9°C° 0 mm 1 mps 768 mmHg 70%
    12:00 +10°C° 0 mm 1 mps 767 mmHg 67%
    13:00 +10°C° 0 mm 1 mps 767 mmHg 67%
    14:00 +10°C° 0 mm 1 mps 767 mmHg 67%
    15:00 +10°C° 0 mm 1 mps 766 mmHg 67%
    16:00 +9°C° 0 mm 2 mps 767 mmHg 69%
    17:00 +9°C° 0 mm 2 mps 767 mmHg 71%
    18:00 +9°C° 0 mm 2 mps 767 mmHg 74%
    19:00 +9°C° 0 mm 2 mps 767 mmHg 75%
    20:00 +9°C° 0 mm 2 mps 767 mmHg 77%
    21:00 +9°C° 0 mm 3 mps 767 mmHg 79%
    22:00 +9°C° 0.1 mm 3 mps 766 mmHg 80%
    23:00 +9°C° 0.1 mm 3 mps 766 mmHg 81%

    20 December, Thursday

    Time Temperature Precipitation Wind Pressure Humidity
    00:00 +9°C° 0.1 mm 3 mps 766 mmHg 82%
    01:00 +9°C° 0.3 mm 3 mps 765 mmHg 83%
    02:00 +9°C° 0.3 mm 3 mps 765 mmHg 84%
    03:00 +9°C° 0.3 mm 3 mps 765 mmHg 85%
    04:00 +9°C° 0.3 mm 3 mps 765 mmHg 85%
    05:00 +9°C° 0.3 mm 3 mps 765 mmHg 84%
    06:00 +9°C° 0.3 mm 3 mps 764 mmHg 84%
    07:00 +9°C° 0.2 mm 3 mps 764 mmHg 82%
    08:00 +9°C° 0.2 mm 3 mps 765 mmHg 79%
    09:00 +9°C° 0.2 mm 3 mps 765 mmHg 77%
    10:00 +9°C° 0.1 mm 3 mps 764 mmHg 74%
    11:00 +9°C° 0.1 mm 3 mps 764 mmHg 72%
    12:00 +10°C° 0.1 mm 3 mps 764 mmHg 69%
    13:00 +10°C° 0 mm 2 mps 763 mmHg 69%
    14:00 +10°C° 0 mm 2 mps 763 mmHg 69%
    15:00 +11°C° 0 mm 1 mps 763 mmHg 68%
    16:00 +11°C° 0 mm 1 mps 763 mmHg 71%
    17:00 +10°C° 0 mm 1 mps 764 mmHg 74%
    18:00 +10°C° 0 mm 1 mps 764 mmHg 77%
    19:00 +10°C° 0 mm 1 mps 764 mmHg 77%
    20:00 +10°C° 0 mm 1 mps 764 mmHg 77%
    21:00 +10°C° 0 mm 1 mps 765 mmHg 77%
    22:00 +8°C° 0.1 mm 2 mps 765 mmHg 78%
    23:00 +8°C° 0.1 mm 2 mps 765 mmHg 78%

    21 December, Friday

    Time Temperature Precipitation Wind Pressure Humidity
    00:00 +8°C° 0.1 mm 2 mps 765 mmHg 78%
    01:00 +8°C° 0.1 mm 2 mps 765 mmHg 79%
    02:00 +8°C° 0.1 mm 2 mps 765 mmHg 79%
    03:00 +8°C° 0.1 mm 2 mps 765 mmHg 80%
    04:00 +8°C° 0 mm 2 mps 765 mmHg 81%
    05:00 +8°C° 0 mm 2 mps 765 mmHg 82%
    06:00 +8°C° 0 mm 2 mps 766 mmHg 83%
    07:00 +8°C° 0 mm 2 mps 766 mmHg 82%
    08:00 +8°C° 0 mm 2 mps 766 mmHg 81%
    09:00 +8°C° 0 mm 2 mps 766 mmHg 80%
    10:00 +9°C° 0 mm 2 mps 766 mmHg 79%
    11:00 +9°C° 0 mm 3 mps 766 mmHg 77%
    12:00 +9°C° 0 mm 3 mps 766 mmHg 76%
    13:00 +9°C° 0 mm 3 mps 765 mmHg 75%
    14:00 +10°C° 0 mm 3 mps 765 mmHg 74%
    15:00 +10°C° 0 mm 3 mps 765 mmHg 73%
    16:00 +9°C° 0 mm 3 mps 765 mmHg 75%
    17:00 +9°C° 0 mm 2 mps 766 mmHg 77%
    18:00 +8°C° 0 mm 2 mps 766 mmHg 79%
    19:00 +8°C° 0.1 mm 2 mps 766 mmHg 80%
    20:00 +8°C° 0.1 mm 2 mps 766 mmHg 80%
    21:00 +8°C° 0.1 mm 2 mps 766 mmHg 81%
    22:00 +8°C° 0.1 mm 2 mps 766 mmHg 82%
    23:00 +7°C° 0.1 mm 2 mps 766 mmHg 83%
    Show more